www.pogodaiklimat.ru

Погода и климат >> Архив погоды >> Индонезия >> Пангкалан-Бун


ПОГОДА в Пангкалан-Буне

  • Прогноз погоды в Пангкалан-Буне
  • Монитор погоды в Пангкалан-Буне

АРХИВ ПОГОДЫ в Пангкалан-Буне

Время (UTC), дата Ветер
(напр.,м/с)
 
Видим.   Явления Облачность Т
(С)
Тd
(С)
f
(%)
Тe
(С)
Тes
(С)
Комфортность P
(гПа)
Po
(гПа)
Тmin
(С)
Tmax
(С)
R
(мм)
R24
(мм)
S
(см)
03 14.09 ЮВ 4 10 км 8/6 360 м
[Sc As trans Ci fib]
+29.6 +20.6 58 +36 +40 очень
душно
1014.2 1011.0
06 14.09 ЮВ 5 10 км 5/4 360 м
[Sc As trans Ci fib]
+32.6 +18.2 42 +37 +43 очень
душно
1011.2 1007.9
09 14.09 Ю 3 10 км 5/4 360 м
[Sc As op Ci fib]
+31.3 +19.3 49 +37 +39 очень
душно
1010.4 1007.2
12 14.09 ЮВ 2 6000 м 5/4 360 м
[Sc As op Ci fib]
+27.0 +20.1 66 +33 +33 очень
душно
1011.3 1008.1 +33.0
15 14.09 ЮВ 2 6000 м 5/4 360 м
[Sc As trans Ci fib]
+24.4 +21.3 83 +31 +31 очень
душно
1012.7 1009.5
18 14.09 штиль 0 6000 м 5/4 360 м
[Sc As trans Ci fib]
+22.2 +20.3 89 +28 +28 душно 1011.5 1008.3
21 14.09 штиль 0 1000 м дым {туман} 5/4 360 м
[Sc As trans Ci fib]
+20.8 +19.5 92 +25 +25 комфорт 1011.0 1007.8
00 15.09 СЗ 2 400 м дым {туман} 5// 270 м
[]
+21.2 +20.2 94 +26 +29 душно 1012.6 1009.4 +20.6
03 15.09 ЮЗ 2 3000 м дым {туман} 5/4 300 м
[Sc As trans Ci fib]
+28.6 +22.4 69 +37 +49 очень
душно
1012.1 1008.8
06 15.09 ЮВ 3 2000 м дым {туман} 5/4 300 м
[Sc As trans Ci fib]
+32.4 +20.1 48 +39 +48 очень
душно
1009.1 1005.8
09 15.09 ЮВ 4 5000 м дым {туман} 5/4 300 м
[Sc As trans Ci fib]
+30.0 +22.7 65 +40 +41 очень
душно
1008.5 1005.3
12 15.09 ЮВ 2 5000 м дым {туман} 8/5 300 м
[Sc As op Ci fib]
+26.2 +21.3 74 +33 +33 очень
душно
1010.0 1006.7 +32.6
15 15.09 штиль 0 4000 м 6/4 300 м
[Sc As op Ci fib]
+25.2 +22.2 83 +33 +33 очень
душно
1011.8 1008.6
18 15.09 ЮВ 2 4000 м 6/4 300 м
[Sc As op Ci fib]
+24.2 +21.7 86 +31 +31 очень
душно
1010.7 1007.5
21 15.09 ЮВ 1 4000 м дым {туман} 6/4 300 м
[Sc As op Ci fib]
+23.2 +21.6 91 +31 +31 очень
душно
1010.6 1007.6
00 16.09 штиль 0 900 м дым {туман} 6/4 360 м
[Sc As op Ci fib]
+23.4 +22.1 92 +32 +34 очень
душно
1011.9 1008.7 +21.2
03 16.09 ЮВ 3 1500 м дым {туман} ?/? +28.2 +22.6 72 +37 +37 очень
душно
1012.1 1008.9
06 16.09 В 2 1500 м дым {туман} ?/? +32.0 +21.4 54 +40 +40 очень
душно
1009.2 1006.0
09 16.09 ЮЗ 2 1700 м дым {туман} ?/? +31.4 +23.9 64 +43 +43 опасность
перегрева
1007.9 1004.7
12 16.09 ЮВ 3 6000 м {туман} 8/5 360 м
[Sc As trans Ci fib]
+27.0 +22.5 76 +35 +35 очень
душно
1009.9 1006.7 +35.0
15 16.09 ЮВ 2 6000 м 6/4 360 м
[Sc As trans Ci fib]
+25.0 +22.9 88 +33 +33 очень
душно
1011.3 1008.1
18 16.09 ЮВ 2 6000 м 6/4 360 м
[Sc As trans Ci fib]
+24.0 +22.4 91 +31 +31 очень
душно
1010.8 1007.6
21 16.09 ЮВ 2 6000 м 6/4 360 м
[Sc As trans Ci fib]
+24.0 +23.0 94 +32 +32 очень
душно
1011.2 1008.0
00 17.09 штиль 0 9000 м 10/9 360 м
[Sc]
+24.2 +22.9 92 +32 +32 очень
душно
1013.1 1009.9 +20.8
03 17.09 ЮВ 4 4000 м дым {туман} ?/? +29.0 +23.1 71 +39 +39 очень
душно
1013.1 1009.8
06 17.09 штиль 0 2000 м дым {туман} ?/? +32.0 +22.0 56 +41 +41 опасность
перегрева
1009.9 1006.7
09 17.09 штиль 0 3000 м дым {туман} ?/? +31.4 +22.7 60 +41 +41 опасность
перегрева
1009.3 1006.1
12 17.09 ЮВ 3 6000 м {туман} ?/? +27.0 +22.2 75 +35 +35 очень
душно
1011.6 1008.4 +32.4
15 17.09 Ю 2 6000 м 8/4 300 м
[Sc As op Ci fib]
+24.9 +22.6 87 +33 +33 очень
душно
1012.8 1009.6
18 17.09 ЮВ 3 6000 м 8/4 300 м
[Sc As op Ci fib]
+24.3 +22.6 90 +32 +32 очень
душно
1011.8 1008.6
21 17.09 ЮВ 3 6000 м 9/5 300 м
[Sc As op Ci fib]
+23.6 +22.5 94 +31 +31 очень
душно
1012.5 1009.3
00 18.09 В 2 7000 м дым {туман} 8/4 300 м
[Sc As trans Ci fib]
+23.8 +22.5 92 +31 +32 очень
душно
1013.9 1010.7 +22.6
03 18.09 ЮВ 3 4000 м дым {туман} 6/4 300 м
[Sc As trans Ci fib]
+30.4 +21.5 59 +38 +46 очень
душно
1013.2 1010.0
06 18.09 ЮВ 3 9000 м {туман} 6/4 300 м
[Sc As trans Ci fib]
+33.6 +20.5 46 +40 +48 очень
душно
1009.9 1006.7
09 18.09 Ю 4 9000 м 8/4 360 м
[Sc As trans Ci fib]
+32.2 +21.3 53 +40 +41 очень
душно
1009.4 1006.2
12 18.09 ЮВ 5 1800 м дым {туман} 8/4 360 м
[Sc As trans Ci fib]
+26.6 +22.1 76 +34 +34 очень
душно
1011.4 1008.2 +34.8
15 18.09 7000 м {туман} н/о +23.8 +22.2 91 +31 +31 очень
душно
1012.8 1009.8
18 18.09 6000 м {туман} н/о +22.8 +21.5 92 +30 +30 очень
душно
1012.4 1009.1
21 18.09 3000 м дым {туман} н/о +21.8 +21.1 96 +28 +28 душно 1012.3 1009.1
00 19.09 штиль 0 100 м дым {туман} ?/? +21.8 +21.4 98 +28 +28 душно 1013.9 1010.7 +20.8
03 19.09 ЮВ 3 1500 м дым {туман} ?/? +29.4 +23.0 68 +39 +39 очень
душно
1012.9 1009.6
06 19.09 Ю 4 3000 м дым {туман} ?/? +33.6 +21.6 50 +42 +42 опасность
перегрева
1009.5 1006.3
09 19.09 Ю 5 9000 м 5/4 360 м
[Sc As op Ci fib]
+31.8 +22.8 59 +42 +43 опасность
перегрева
1009.1 1005.9
12 19.09 ЮВ 4 4000 м 5/3 360 м
[Sc As op Ci fib]
+26.8 +21.7 74 +34 +34 очень
душно
1011.4 1008.2 +33.6
15 19.09 ЮВ 3 6000 м 5/3 360 м
[Sc As trans Ci fib]
+24.8 +22.3 86 +32 +32 очень
душно
1012.1 1008.9
18 19.09 штиль 0 6000 м 5/3 360 м
[Sc As trans Ci fib]
+24.0 +22.1 89 +31 +31 очень
душно
1011.0 1007.8
21 19.09 штиль 0 6000 м 5/3 360 м
[Sc As trans Ci fib]
+22.8 +21.5 92 +30 +30 очень
душно
1011.1 1007.8
00 20.09 штиль 0 500 м дым {туман} ?/? +23.2 +22.2 94 +32 +32 очень
душно
1013.3 1010.0 +22.4
03 20.09 ЮВ 4 2400 м дым {туман} ?/? +22.8 +22.3 97 +31 +31 очень
душно
1013.0 1009.7
06 20.09 Ю 2 4000 м дым {туман} ?/? +31.8 +21.8 55 +40 +40 очень
душно
1010.0 1006.8
09 20.09 Ю 3 7000 м {туман} 3/3 360 м
[Sc]
+30.8 +22.3 61 +40 +42 очень
душно
1009.0 1005.8
12 20.09 ЮВ 3 5000 м дым {туман} ?/? +26.8 +22.6 78 +35 +35 очень
душно
1011.0 1007.8 +34.0
15 20.09 ЮВ 2 7000 м {туман} 3/1 360 м
[Sc As trans Ci fib]
+25.1 +22.7 87 +33 +33 очень
душно
1012.0 1008.8
18 20.09 штиль 0 7000 м {туман} 3/1 360 м
[Sc As trans Ci fib]
+24.0 +22.0 89 +31 +31 очень
душно
1010.8 1007.6

 

Местоположение метеостанции Пангкалан-Бун (Индонезия): широта -2.70 долгота 111.70 высота над уровнем моря 25 м.

В архиве по умолчанию представлена погода в Пангкалан-Буне за последнюю неделю. Архивные данные за месяц целиком и за предыдущие месяцы, начиная с января 2011 года, Вы можете получить, выбрав интересующий диапазон дат из раскрывающегося списка и нажав кнопку "Ввод!".


*Определитесь, кто Вы:
робот инопланетянин человек

Внимание! Время в таблицах - всемирное. Для получения местного времени необходимо прибавить поправку, которая равна 7 ч.

Смотрите также архив погоды в соседних городах и на ближайших метеорологических станциях:

Погода в Кетапанге (Индонезия) (215 км)
Погода в Нангапинохе (Индонезия) (262 км)
Погода в Синтанге (Индонезия) (314 км)
Погода в Паоанкарая (Индонезия) (318 км)
Погода в Банджармасине (Индонезия) (348 км)
Погода в Сангкапуре (Индонезия) (365 км)
Погода в Понтианаке (Индонезия) (382 км)
Погода в Муаратевехе (Индонезия) (406 км)
Погода на Путусиббау (Индонезия) (417 км)
Погода в Танджунгпандане (Индонезия) (439 км)

Пояснения к столбцам:

Ветер - указаны скорость ветра в м/с - средняя за 10 мин, порывы в срок и между сроками (в фигурных скобках) и направление, откуда дует ветер: С - северный, СВ - северо-восточный, В - восточный, ЮВ - юго-восточный, Ю - южный, ЮЗ - юго-западный, З - западный, СЗ - северо-западный.
Видимость - горизонтальная дальность видимости в метрах или километрах. При видимости от 1 до 10 км при отсутствии осадков обычно наблюдается дымка, при ухудшении видимости до 1 км и менее - туман. В сухую погоду видимость может ухудшаться дымом, пылью или мглою.
Явления - указаны атмосферные явления, наблюдавшиеся в срок или в последний час перед сроком; фигурными скобками обозначены явления, наблюдавшиеся между сроками (за 1-3 часа до срока); квадратными скобками обозначены град или гололедные отложения с указанием их диаметра в мм.
Облачность - указаны через наклонную черту общая и нижняя облачность в баллах и высота нижней границы облаков в метрах; квадратными скобками обозначены формы облаков: Ci - перистые, Cs - перисто-слоистые, Cc - перисто-кучевые, Ac - высококучевые, As - высокослоистые, Sc - слоисто-кучевые, Ns - слоисто-дождевые, Cu - кучевые, Cb - кучево-дождевые. Подробнее классификацию облаков см. в Атласе облаков (PDF).
T - Температура воздуха - температура, измеренная на высоте 2 м над землей.
Td - Температура точки росы - температура, при понижении до которой содержащийся в воздухе водяной пар достигнет насыщения.
f - Относительная влажность воздуха - влажноcть воздуха, измеренная на высоте 2 м над землей.
Te - Эффективная температура - температура, которую ощущает одетый по сезону человек в тени. Характеристика душности погоды. При расчете учитывается влияние влажности воздуха и скорости ветра на теплоощущения человека.
Tes - Эффективная температура на солнце - температура, которую ощущает человек, с поправкой на солнечный нагрев. Характеристика знойности погоды. Зависит от высоты солнца над горизонтом, облачности и скорости ветра. Ночью, в пасмурную погоду, а также при ветре 12 м/с и более поправка равна нулю.
P - Атмосферное давление - приведенное к уровню моря атмосферное давление.
Po - Атмосферное давление - измеренное на уровне метеостанции атмосферное давление.
Tmin - Минимальная температура - минимум температуры воздуха на высоте 2 м над землей.
Tmax - Максимальная температура - максимум температуры воздуха на высоте 2 м над землей.
R - Количество осадков - Количество выпавших осадков за период времени, мм. При наведении курсора мыши на число - период времени, за который выпало указанное количество осадков.
R24 - Количество осадков - Количество выпавших осадков за 24 часа, мм.
S - Снежный покров - Высота снежного покрова, см. При наведении курсора мыши на число - состояние снежного покрова и степень покрытия местности в баллах.